FENGYUN 1C DEB, 31466

Orbit data source: Space-Track

FENGYUN 1C DEB, 31466 is space debris in SSO originally from a launch on Mon, 10 May 1999 UTC launched from the Taiyaun Space Center, China (TSC). Fengyun 1C debris stems from the Chinese weather satellite Fengyun-1C, which was intentionally destroyed by a Chinese anti-satellite missile in 2007. This event dramatically increased the amount of space debris, with thousands of trackable fragments posing hazards to satellites and human spaceflight. The Fengyun 1C debris cloud has become a focal point in discussions about space sustainability and the need for international regulations to prevent the creation of new debris.

Loading next visibility...
Identifier
31466, 1999-025BVE
Orbit
SSO
Country
Flag of CNCN / PRC
Related business
Manufacturer
Unknown
Mission
Spacecraft
Bus & Motor
Unknown
Mass
Unknown
Launch date (UTC)
1999-05-10 (27 years ago)
Launch vehicle
Unknown
Launch site
Taiyaun Space Center, China (TSC)
Object type
Payload
Rocket body
Debris
Shape & HBR
Unknown shape, 0.1 m
Radar Cross Section
Small (<0.1 m²)

Expand to show TLE details & history
Last TLE update: 2 weeks ago

TLE from 2 weeks ago
0 FENGYUN 1C DEB
1 31466U 99025BVE 26244.56562983  .00000139  00000-0  61376-4 0  9997
2 31466  99.1051 186.7007 0297724 280.7722  76.0072 14.18781136    18
Epoch: 2026-09-01T13:34Z
TLE epoch observation values (Epoch: 2026-09-01T13:34:30.417Z)
Latitude
-0.00007°
Longitude
2.34329°
Altitude
786.562 km
Speed
7.484 km/s
True Right ascension
12h 26m 48s
True Declination
0° 00' 00"
Sunlit
Object was in daylight at epoch
Visualization orbit readout
Latitude
Unknown
Longitude
Unknown
Altitude
Unknown
Speed
Unknown
Apparent Right ascension
Unknown
Apparent Declination
Unknown
Sunlit
N/A
Visualization observer readout
Local Sidereal Time
04:44:39
Azimuth
Unknown
Elevation
Unknown
Doppler factor
Unknown
Orbital elements
Apogee altitude
1,041.158 km
Perigee altitude
612.15 km
Semi-major axis
7,204.791 km
Eccentricity
0.02977
Inclination
99.1051°
RAAN
186.7007°
Arg. of periapsis
280.7722°
True anomaly
79.34579°
Mean anomaly
76.0072°
Eccentric anomaly
77.67371°
Mean motion
3.54904 °/min
Orbital period
101.44 mins
BSTAR
0.000061376
Loading maneuver chart data...
Computing Atmospheric mass density...

Documentation

Showing up to 5 results
|